Location: Argonnex
(45.9500°N, 6.1333°E)
Time: 10:11:00
(UTC+00:00)

Cosmos 2266 Rocket - Pass Details

Date: 30 September 2023
Orbit: 933 x 1008 km, 82.9° (Epoch: 10 December)

Event Time Altitude Azimuth Distance (km) Brightness Sun altitude
Exits shadow 04:01:28 24° 267° (W) 1,929 5.0 -16.4°
Maximum altitude 04:03:10 27° 292° (WNW) 1,813 5.0 -16.2°
Drops below altitude 10° 04:08:31 10° 349° (NNW) 2,790 6.4 -15.2°
Sets 04:11:32 0° 1° (N) 3,749 7.2 -14.7°
